Weather in Gornostayivka

Ukraine / Kherson District     47°00′37″N   33°43′41″E
temp.,
°C
wind,
m/s
gust,
m/s
humid.,
%
clouds,
%
prec.,
mm/h
press.,
hPa
HPBL,
m
11 april, sun
sun1100:00+7nne47635 0.0 102582
03:00+6nne510625 0.0 1026147
06:00+5nne510685 0.0 1026186
09:00+8nne7962100 0.0 1026254
12:00+11nne911495 0.0 1025403
15:00+12nne81146100 0.0 1024405
18:00+11nne61053100 0.0 1023223
21:00+9nne6962100 0.0 1023105
12 april, mon
mon1200:00+9nne696379 0.0 1022136
03:00+8nne61070100 0.0 1021153
06:00+8nne5876100 0.1 1021184
09:00+8nne4679100 0.1 1021126
12:00+9n2278100 0.0 1020167
15:00+9nw2282100 0.1 102042
18:00+9w1190100 0.4 101919
21:00+9ssw2288100 0.4 102014
13 april, tue
tue1300:00+9s338598 0.0 102037
03:00+8s3386100 0.0 102041
06:00+8s3389100 0.0 102039
09:00+9se4588100 0.0 1020119
12:00+10sse3481100 0.0 1020254
15:00+11s3472100 0.1 1020287
18:00+11s2375100 0.1 101942
21:00+10s3386100 0.4 102043
14 april, wed
wed1400:00+9s3391100 0.1 101956
03:00+8sse2391100 0.2 101948
06:00+8se2292100 0.0 101832
09:00+8ese238580 0.2 1018123
12:00+10s227580 0.1 1017304
15:00+11s2369100 0.1 1016399
18:00+12sse566284 0.0 1015308
21:00+10ese578493 0.0 1015100
15 april, thu
thu1500:00+8ese478889 0.0 1015112
03:00+8ese358769 0.0 101458
06:00+7e349115 0.0 101455
09:00+9ese4683100 0.0 1013154
12:00+11se6871100 0.0 1013373
15:00+10s4582100 0.3 1012149
18:00+8ssw4596100 2.8 1012120
21:00+8s2396100 4.0 1011147